LECOLEGR

Guest
Details From LECO - A Coruna
To LEGR - Granada
Flight Number -
Tags decoded
Created
Modified
Stats Distance 478 nm / 886 km
Max Altitude 0 ft / 0 m
Waypoints 7
Social Downloads 0
Likes 0
Share VATSIM

Download

Looking for another format? Having issues loading an existing format? Contact us
Advertisement - Login to hide

Notes

Requested: LECO FORNO BARKO ZMR HIJ OMIGO LEGR

Route

LECO FORNO BARKO ZMR HIJ OMIGO LEGR

ID Type Via Altitude Latitude Longitude Leg Dist Tot Dist Heading (true) Name
O LECO APT - 0 ft / 0 m 43.30226˚ -8.37709˚ - 0 nm - A Coruna
FORNO FIX - 0 ft / 0 m 42.46811˚ -7.48146˚ 63 nm 63 nm 142° / 142° -
BARKO FIX - 0 ft / 0 m 42.20061˚ -6.94460˚ 28 nm 92 nm 124° / 124° -
ZMR NDB - 0 ft / 0 m 41.52845˚ -5.65174˚ 70 nm 163 nm 124° / 125° ZAMORA NDB
HIJ VOR - 0 ft / 0 m 38.50813˚ -5.09968˚ 183 nm 346 nm 172° / 172° HINOJOSA VOR-DME
OMIGO FIX - 0 ft / 0 m 37.22000˚ -4.90722˚ 77 nm 424 nm 173° / 173° -
O LEGR APT - 0 ft / 0 m 37.18873˚ -3.77736˚ 54 nm 478 nm 92° / 92° Granada

Altitude Profile

Advertisement - Login to hide

Weather


0- 5 10 15 20 25 30 35+ Temperature / ° C

Clouds and Precipitation
Forecast for 2017-12-13 18:00 UTC. Updated 2 hours ago

Ground ~20,000 ft ~40,000 ft Winds

LECO

Details ICAO LECO (LCG)
Name A Coruna
Region Spain
Timezone Europe/Madrid (UTC+1.0)
Stats Elevation 323 ft / 98 m (AMSL)
Location 43.302264° -8.377086°
Runways 1
Magnetic Variation 2.392° W

METAR

LECO 131641Z 26006KT 200V320 2500 -RA BKN010 OVC013 14/14 Q1021 TEMPO 6000

Decode

TAF

TAF AMD LECO 131450Z 1315/1415 21009KT 9999 SCT020 BKN030 TX15/1414Z TN09/1407Z TEMPO 1315/1320 21015G25KT TEMPO 1315/1415 3000 RA BR BKN014 PROB40 TEMPO 1400/1409 30010KT

Decode

Departure Runways

ID Width Length Bearing (true) Bearing (mag) Surface Threshold Offset Overrun Length
04 148 ft / 45 m 6,371 ft / 1,942 m 30.94° 33.33° Asphalt 0 ft / 0 m 194 ft / 59 m
22 148 ft / 45 m 6,371 ft / 1,942 m 210.94° 213.33° Asphalt 0 ft / 0 m 203 ft / 62 m

LEGR

Details ICAO LEGR (GRX)
Name Granada
Region Spain
Timezone Europe/Madrid (UTC+1.0)
Stats Elevation 1,859 ft / 567 m (AMSL)
Location 37.188731° -3.777359°
Runways 1
Magnetic Variation 0.677° W

METAR

LEGR 131630Z 27001KT CAVOK 12/00 Q1027

Decode

TAF

TAF LEGR 131400Z 1315/1415 VRB02KT CAVOK TX12/1315Z TNM01/1407Z

Decode

Destination Runways

ID Width Length Bearing (true) Bearing (mag) Surface Threshold Offset Overrun Length
09 147 ft / 45 m 9,511 ft / 2,899 m 89.46° 90.14° Asphalt 0 ft / 0 m 0 ft / 0 m
27 147 ft / 45 m 9,511 ft / 2,899 m 269.48° 270.16° Asphalt 0 ft / 0 m 0 ft / 0 m

Approach Navaids

Runway Type Ident Frequency Range Bearing (true) Bearing (mag) Slope Elevation
09 Localiser GRD 109.30 MHz 18 nm / 33 km 89.49° 90.16° - 1,859 ft / 567 m (AMSL)
09 Glidescope GRD 109.30 MHz 10 nm / 19 km 89.47° 90.15° 3.00° 1,859 ft / 567 m (AMSL)

Popular Alternatives